Time,TemperatureF,DewpointF,PressureIn,WindDirection,WindDirectionDegrees,WindSpeedMPH,WindSpeedGustMPH,Humidity,HourlyPrecipIn,Conditions,Clouds,dailyrainin,SoftwareType,DateUTC
2013-09-01 00:00:00,88.4,63.0,29.80,North,0,0.0,0.0,43,0.00,,,0.00,WUHU216HW,2013-09-01 05:00:00,
2013-09-01 00:05:00,88.4,63.0,29.80,North,0,0.0,0.0,43,0.00,,,0.00,WUHU216HW,2013-09-01 05:05:00,
2013-09-01 00:30:00,87.7,63.0,29.80,North,0,0.0,0.0,44,0.00,,,0.00,WUHU216HW,2013-09-01 05:30:00,
2013-09-01 00:31:00,87.7,63.0,29.80,North,0,0.0,0.0,44,0.00,,,0.00,WUHU216HW,2013-09-01 05:31:00,
2013-09-01 00:36:00,87.7,63.0,29.80,North,0,0.0,0.0,44,0.00,,,0.00,WUHU216HW,2013-09-01 05:36:00,
2013-09-01 01:00:00,87.1,63.2,29.80,North,0,0.0,0.0,45,0.00,,,0.00,WUHU216HW,2013-09-01 06:00:00,
2013-09-01 01:05:00,87.1,63.2,29.80,North,0,0.0,0.0,45,0.00,,,0.00,WUHU216HW,2013-09-01 06:05:00,
2013-09-01 01:30:00,86.8,63.5,29.80,North,0,0.0,0.0,46,0.00,,,0.00,WUHU216HW,2013-09-01 06:30:00,
2013-09-01 01:31:00,86.8,63.5,29.80,North,0,0.0,0.0,46,0.00,,,0.00,WUHU216HW,2013-09-01 06:31:00,
2013-09-01 01:36:00,86.8,63.5,29.80,North,0,0.0,0.0,46,0.00,,,0.00,WUHU216HW,2013-09-01 06:36:00,
2013-09-01 02:00:00,86.6,64.5,29.81,North,0,0.0,0.0,48,0.00,,,0.00,WUHU216HW,2013-09-01 07:00:00,
2013-09-01 02:05:00,86.6,64.5,29.81,North,0,0.0,0.0,48,0.00,,,0.00,WUHU216HW,2013-09-01 07:05:00,
2013-09-01 02:30:00,86.4,65.7,29.81,North,0,0.0,0.0,50,0.00,,,0.00,WUHU216HW,2013-09-01 07:30:00,
2013-09-01 02:31:00,86.4,65.7,29.81,North,0,0.0,0.0,50,0.00,,,0.00,WUHU216HW,2013-09-01 07:31:00,
2013-09-01 02:36:00,86.4,65.7,29.81,North,0,0.0,0.0,50,0.00,,,0.00,WUHU216HW,2013-09-01 07:36:00,
2013-09-01 03:00:00,86.4,65.7,29.81,North,0,0.0,0.0,50,0.00,,,0.00,WUHU216HW,2013-09-01 08:00:00,
2013-09-01 03:05:00,86.4,65.7,29.81,North,0,0.0,0.0,50,0.00,,,0.00,WUHU216HW,2013-09-01 08:05:00,
2013-09-01 03:30:00,85.9,65.7,29.81,North,0,0.0,0.0,51,0.00,,,0.00,WUHU216HW,2013-09-01 08:30:00,
2013-09-01 03:31:00,85.9,65.7,29.81,North,0,0.0,0.0,51,0.00,,,0.00,WUHU216HW,2013-09-01 08:31:00,
2013-09-01 03:36:00,85.9,65.7,29.81,North,0,0.0,0.0,51,0.00,,,0.00,WUHU216HW,2013-09-01 08:36:00,
2013-09-01 04:00:00,85.3,65.7,29.82,North,0,0.0,0.0,52,0.00,,,0.00,WUHU216HW,2013-09-01 09:00:00,
2013-09-01 04:05:00,85.3,65.7,29.82,North,0,0.0,0.0,52,0.00,,,0.00,WUHU216HW,2013-09-01 09:05:00,
2013-09-01 04:30:00,85.0,66.0,29.82,North,0,0.0,0.0,53,0.00,,,0.00,WUHU216HW,2013-09-01 09:30:00,
2013-09-01 04:31:00,85.0,66.0,29.82,North,0,0.0,0.0,53,0.00,,,0.00,WUHU216HW,2013-09-01 09:31:00,
2013-09-01 04:36:00,85.0,66.0,29.82,North,0,0.0,0.0,53,0.00,,,0.00,WUHU216HW,2013-09-01 09:36:00,
2013-09-01 05:00:00,84.6,66.2,29.82,North,0,0.0,0.0,54,0.00,,,0.00,WUHU216HW,2013-09-01 10:00:00,
2013-09-01 05:05:00,84.6,66.2,29.82,North,0,0.0,0.0,54,0.00,,,0.00,WUHU216HW,2013-09-01 10:05:00,
2013-09-01 05:30:00,83.7,65.3,29.82,North,0,0.0,0.0,54,0.00,,,0.00,WUHU216HW,2013-09-01 10:30:00,
2013-09-01 05:31:00,83.7,65.3,29.82,North,0,0.0,0.0,54,0.00,,,0.00,WUHU216HW,2013-09-01 10:31:00,
2013-09-01 05:36:00,83.7,65.3,29.82,North,0,0.0,0.0,54,0.00,,,0.00,WUHU216HW,2013-09-01 10:36:00,
2013-09-01 06:00:00,82.8,65.4,29.82,North,0,0.0,0.0,56,0.00,,,0.00,WUHU216HW,2013-09-01 11:00:00,
2013-09-01 06:05:00,82.8,65.4,29.82,North,0,0.0,0.0,56,0.00,,,0.00,WUHU216HW,2013-09-01 11:05:00,
2013-09-01 06:30:00,82.6,65.8,29.83,North,0,0.0,0.0,57,0.00,,,0.00,WUHU216HW,2013-09-01 11:30:00,
2013-09-01 06:31:00,82.6,65.8,29.83,North,0,0.0,0.0,57,0.00,,,0.00,WUHU216HW,2013-09-01 11:31:00,
2013-09-01 06:36:00,82.6,65.8,29.83,North,0,0.0,0.0,57,0.00,,,0.00,WUHU216HW,2013-09-01 11:36:00,
2013-09-01 07:00:00,82.3,66.0,29.83,North,0,0.0,0.0,58,0.00,,,0.00,WUHU216HW,2013-09-01 12:00:00,
2013-09-01 07:01:00,82.3,66.0,29.83,North,0,0.0,0.0,58,0.00,,,0.00,WUHU216HW,2013-09-01 12:01:00,
2013-09-01 07:06:00,82.3,66.0,29.83,North,0,0.0,0.0,58,0.00,,,0.00,WUHU216HW,2013-09-01 12:06:00,
2013-09-01 07:30:00,82.3,66.0,29.83,North,0,0.0,0.0,58,0.00,,,0.00,WUHU216HW,2013-09-01 12:30:00,
2013-09-01 07:31:00,82.3,66.0,29.83,North,0,0.0,0.0,58,0.00,,,0.00,WUHU216HW,2013-09-01 12:31:00,
2013-09-01 07:36:00,82.3,66.0,29.83,North,0,0.0,0.0,58,0.00,,,0.00,WUHU216HW,2013-09-01 12:36:00,
2013-09-01 08:00:00,83.5,67.7,29.84,North,0,0.0,0.0,59,0.00,,,0.00,WUHU216HW,2013-09-01 13:00:00,
2013-09-01 08:01:00,83.5,67.7,29.84,North,0,0.0,0.0,59,0.00,,,0.00,WUHU216HW,2013-09-01 13:01:00,
2013-09-01 08:06:00,83.5,67.7,29.84,North,0,0.0,0.0,59,0.00,,,0.00,WUHU216HW,2013-09-01 13:06:00,
2013-09-01 08:30:00,85.0,68.6,29.85,North,0,0.0,0.0,58,0.00,,,0.00,WUHU216HW,2013-09-01 13:30:00,
2013-09-01 08:31:00,85.0,68.6,29.85,North,0,0.0,0.0,58,0.00,,,0.00,WUHU216HW,2013-09-01 13:31:00,
2013-09-01 08:36:00,85.0,68.6,29.85,North,0,0.0,0.0,58,0.00,,,0.00,WUHU216HW,2013-09-01 13:36:00,
2013-09-01 09:00:00,86.4,68.9,29.86,North,0,0.0,0.0,56,0.00,,,0.00,WUHU216HW,2013-09-01 14:00:00,
2013-09-01 09:01:00,86.4,68.9,29.86,North,0,0.0,0.0,56,0.00,,,0.00,WUHU216HW,2013-09-01 14:01:00,
2013-09-01 09:06:00,86.4,68.9,29.86,North,0,0.0,0.0,56,0.00,,,0.00,WUHU216HW,2013-09-01 14:06:00,
2013-09-01 09:30:00,87.7,68.9,29.86,North,0,0.0,0.0,54,0.00,,,0.00,WUHU216HW,2013-09-01 14:30:00,
2013-09-01 09:31:00,87.7,68.9,29.86,North,0,0.0,0.0,54,0.00,,,0.00,WUHU216HW,2013-09-01 14:31:00,
2013-09-01 09:36:00,87.7,68.9,29.86,North,0,0.0,0.0,54,0.00,,,0.00,WUHU216HW,2013-09-01 14:36:00,
2013-09-01 10:00:00,88.9,69.0,29.87,North,0,0.0,0.0,52,0.00,,,0.00,WUHU216HW,2013-09-01 15:00:00,
2013-09-01 10:05:00,88.9,69.0,29.87,North,0,0.0,0.0,52,0.00,,,0.00,WUHU216HW,2013-09-01 15:05:00,
2013-09-01 10:30:00,90.5,69.4,29.88,North,0,0.0,0.0,50,0.00,,,0.00,WUHU216HW,2013-09-01 15:30:00,
2013-09-01 10:31:00,90.5,69.4,29.88,North,0,0.0,0.0,50,0.00,,,0.00,WUHU216HW,2013-09-01 15:31:00,
2013-09-01 10:36:00,90.5,69.4,29.88,North,0,0.0,0.0,50,0.00,,,0.00,WUHU216HW,2013-09-01 15:36:00,
2013-09-01 11:00:00,91.8,69.2,29.87,North,0,0.0,0.0,48,0.00,,,0.00,WUHU216HW,2013-09-01 16:00:00,
2013-09-01 11:05:00,91.8,69.2,29.87,North,0,0.0,0.0,48,0.00,,,0.00,WUHU216HW,2013-09-01 16:05:00,
2013-09-01 11:30:00,93.1,68.4,29.87,North,0,0.0,0.0,45,0.00,,,0.00,WUHU216HW,2013-09-01 16:30:00,
2013-09-01 11:31:00,93.1,68.4,29.87,North,0,0.0,0.0,45,0.00,,,0.00,WUHU216HW,2013-09-01 16:31:00,
2013-09-01 11:36:00,93.1,68.4,29.87,North,0,0.0,0.0,45,0.00,,,0.00,WUHU216HW,2013-09-01 16:36:00,
2013-09-01 12:00:00,94.3,68.3,29.87,North,0,0.0,0.0,43,0.00,,,0.00,WUHU216HW,2013-09-01 17:00:00,
2013-09-01 12:05:00,94.3,68.3,29.87,North,0,0.0,0.0,43,0.00,,,0.00,WUHU216HW,2013-09-01 17:05:00,
2013-09-01 12:30:00,95.9,69.1,29.86,North,0,0.0,0.0,42,0.00,,,0.00,WUHU216HW,2013-09-01 17:30:00,
2013-09-01 12:31:00,95.9,69.1,29.86,North,0,0.0,0.0,42,0.00,,,0.00,WUHU216HW,2013-09-01 17:31:00,
2013-09-01 12:36:00,95.9,69.1,29.86,North,0,0.0,0.0,42,0.00,,,0.00,WUHU216HW,2013-09-01 17:36:00,
2013-09-01 13:00:00,97.6,68.4,29.85,North,0,0.0,0.0,39,0.00,,,0.00,WUHU216HW,2013-09-01 18:00:00,
2013-09-01 13:05:00,97.6,68.4,29.85,North,0,0.0,0.0,39,0.00,,,0.00,WUHU216HW,2013-09-01 18:05:00,
2013-09-01 13:30:00,99.0,68.9,29.85,North,0,0.0,0.0,38,0.00,,,0.00,WUHU216HW,2013-09-01 18:30:00,
2013-09-01 13:31:00,99.0,68.9,29.85,North,0,0.0,0.0,38,0.00,,,0.00,WUHU216HW,2013-09-01 18:31:00,
2013-09-01 13:36:00,99.0,68.9,29.85,North,0,0.0,0.0,38,0.00,,,0.00,WUHU216HW,2013-09-01 18:36:00,
2013-09-01 14:00:00,100.4,67.7,29.83,North,0,0.0,0.0,35,0.00,,,0.00,WUHU216HW,2013-09-01 19:00:00,
2013-09-01 14:05:00,100.4,67.7,29.83,North,0,0.0,0.0,35,0.00,,,0.00,WUHU216HW,2013-09-01 19:05:00,
2013-09-01 14:30:00,102.1,67.4,29.82,North,0,0.0,0.0,33,0.00,,,0.00,WUHU216HW,2013-09-01 19:30:00,
2013-09-01 14:31:00,102.1,67.4,29.82,North,0,0.0,0.0,33,0.00,,,0.00,WUHU216HW,2013-09-01 19:31:00,
2013-09-01 14:36:00,102.1,67.4,29.82,North,0,0.0,0.0,33,0.00,,,0.00,WUHU216HW,2013-09-01 19:36:00,
2013-09-01 15:00:00,100.4,66.9,29.81,North,0,0.0,0.0,34,0.00,,,0.00,WUHU216HW,2013-09-01 20:00:00,
2013-09-01 15:05:00,100.4,66.9,29.81,North,0,0.0,0.0,34,0.00,,,0.00,WUHU216HW,2013-09-01 20:05:00,
2013-09-01 15:30:00,100.3,66.7,29.80,North,0,0.0,0.0,34,0.00,,,0.00,WUHU216HW,2013-09-01 20:30:00,
2013-09-01 15:31:00,100.3,66.7,29.80,North,0,0.0,0.0,34,0.00,,,0.00,WUHU216HW,2013-09-01 20:31:00,
2013-09-01 15:36:00,100.3,66.7,29.80,North,0,0.0,0.0,34,0.00,,,0.00,WUHU216HW,2013-09-01 20:36:00,
2013-09-01 16:00:00,100.3,65.9,29.78,North,0,0.0,0.0,33,0.00,,,0.00,WUHU216HW,2013-09-01 21:00:00,
2013-09-01 16:05:00,100.3,65.9,29.78,North,0,0.0,0.0,33,0.00,,,0.00,WUHU216HW,2013-09-01 21:05:00,
2013-09-01 16:30:00,100.3,65.9,29.78,North,0,0.0,0.0,33,0.00,,,0.00,WUHU216HW,2013-09-01 21:30:00,
2013-09-01 16:31:00,100.3,65.9,29.78,North,0,0.0,0.0,33,0.00,,,0.00,WUHU216HW,2013-09-01 21:31:00,
2013-09-01 16:36:00,100.3,65.9,29.78,North,0,0.0,0.0,33,0.00,,,0.00,WUHU216HW,2013-09-01 21:36:00,
2013-09-01 17:00:00,102.1,66.5,29.76,North,0,0.0,0.0,32,0.00,,,0.00,WUHU216HW,2013-09-01 22:00:00,
2013-09-01 17:05:00,102.1,66.5,29.76,North,0,0.0,0.0,32,0.00,,,0.00,WUHU216HW,2013-09-01 22:05:00,
2013-09-01 17:30:00,101.5,65.3,29.76,North,0,0.0,0.0,31,0.00,,,0.00,WUHU216HW,2013-09-01 22:30:00,
2013-09-01 17:31:00,101.5,65.3,29.76,North,0,0.0,0.0,31,0.00,,,0.00,WUHU216HW,2013-09-01 22:31:00,
2013-09-01 17:36:00,101.5,65.3,29.76,North,0,0.0,0.0,31,0.00,,,0.00,WUHU216HW,2013-09-01 22:36:00,
2013-09-01 18:00:00,101.3,64.3,29.76,North,0,0.0,0.0,30,0.00,,,0.00,WUHU216HW,2013-09-01 23:00:00,
2013-09-01 18:05:00,101.3,64.3,29.76,North,0,0.0,0.0,30,0.00,,,0.00,WUHU216HW,2013-09-01 23:05:00,
2013-09-01 18:30:00,101.2,65.0,29.77,North,0,0.0,0.0,31,0.00,,,0.00,WUHU216HW,2013-09-01 23:30:00,
2013-09-01 18:31:00,101.2,65.0,29.77,North,0,0.0,0.0,31,0.00,,,0.00,WUHU216HW,2013-09-01 23:31:00,
2013-09-01 18:36:00,101.2,65.0,29.77,North,0,0.0,0.0,31,0.00,,,0.00,WUHU216HW,2013-09-01 23:36:00,
2013-09-01 19:00:00,100.1,64.1,29.77,North,0,0.0,0.0,31,0.00,,,0.00,WUHU216HW,2013-09-02 00:00:00,
2013-09-01 19:05:00,100.1,64.1,29.77,North,0,0.0,0.0,31,0.00,,,0.00,WUHU216HW,2013-09-02 00:05:00,
2013-09-01 19:30:00,98.5,64.3,29.78,North,0,0.0,0.0,33,0.00,,,0.00,WUHU216HW,2013-09-02 00:30:00,
2013-09-01 19:31:00,98.5,64.3,29.78,North,0,0.0,0.0,33,0.00,,,0.00,WUHU216HW,2013-09-02 00:31:00,
2013-09-01 19:36:00,98.5,64.3,29.78,North,0,0.0,0.0,33,0.00,,,0.00,WUHU216HW,2013-09-02 00:36:00,
2013-09-01 20:00:00,97.4,64.1,29.78,North,0,0.0,0.0,34,0.00,,,0.00,WUHU216HW,2013-09-02 01:00:00,
2013-09-01 20:01:00,97.4,64.1,29.78,North,0,0.0,0.0,34,0.00,,,0.00,WUHU216HW,2013-09-02 01:01:00,
2013-09-01 20:06:00,97.4,64.1,29.78,North,0,0.0,0.0,34,0.00,,,0.00,WUHU216HW,2013-09-02 01:06:00,
2013-09-01 20:30:00,96.1,63.8,29.78,North,0,0.0,0.0,35,0.00,,,0.00,WUHU216HW,2013-09-02 01:30:00,
2013-09-01 20:31:00,96.1,63.8,29.78,North,0,0.0,0.0,35,0.00,,,0.00,WUHU216HW,2013-09-02 01:31:00,
2013-09-01 20:36:00,96.1,63.8,29.78,North,0,0.0,0.0,35,0.00,,,0.00,WUHU216HW,2013-09-02 01:36:00,
2013-09-01 21:00:00,95.2,63.9,29.79,North,0,0.0,0.0,36,0.00,,,0.00,WUHU216HW,2013-09-02 02:00:00,
2013-09-01 21:01:00,95.2,63.9,29.79,North,0,0.0,0.0,36,0.00,,,0.00,WUHU216HW,2013-09-02 02:01:00,
2013-09-01 21:06:00,95.2,63.9,29.79,North,0,0.0,0.0,36,0.00,,,0.00,WUHU216HW,2013-09-02 02:06:00,
2013-09-01 21:30:00,94.0,66.0,29.81,North,0,0.0,0.0,40,0.00,,,0.00,WUHU216HW,2013-09-02 02:30:00,
2013-09-01 21:31:00,94.0,66.0,29.81,North,0,0.0,0.0,40,0.00,,,0.00,WUHU216HW,2013-09-02 02:31:00,
2013-09-01 21:36:00,94.0,66.0,29.81,North,0,0.0,0.0,40,0.00,,,0.00,WUHU216HW,2013-09-02 02:36:00,
2013-09-01 22:00:00,93.2,65.3,29.82,North,0,0.0,0.0,40,0.00,,,0.00,WUHU216HW,2013-09-02 03:00:00,
2013-09-01 22:01:00,93.2,65.3,29.82,North,0,0.0,0.0,40,0.00,,,0.00,WUHU216HW,2013-09-02 03:01:00,
2013-09-01 22:06:00,93.2,65.3,29.82,North,0,0.0,0.0,40,0.00,,,0.00,WUHU216HW,2013-09-02 03:06:00,
2013-09-01 22:30:00,89.5,68.4,29.85,North,0,0.0,0.0,50,0.06,,,0.00,WUHU216HW,2013-09-02 03:30:00,
2013-09-01 22:31:00,89.5,68.4,29.85,North,0,0.0,0.0,50,0.06,,,0.00,WUHU216HW,2013-09-02 03:31:00,
2013-09-01 22:36:00,89.5,68.4,29.85,North,0,0.0,0.0,50,0.06,,,0.00,WUHU216HW,2013-09-02 03:36:00,
2013-09-01 23:00:00,84.1,69.7,29.84,North,0,0.0,0.0,62,0.07,,,0.05,WUHU216HW,2013-09-02 04:00:00,
2013-09-01 23:01:00,84.1,69.7,29.84,North,0,0.0,0.0,62,0.07,,,0.05,WUHU216HW,2013-09-02 04:01:00,
2013-09-01 23:02:00,84.1,69.7,29.84,North,0,0.0,0.0,62,0.07,,,0.05,WUHU216HW,2013-09-02 04:02:00,
2013-09-01 23:07:00,84.1,69.7,29.84,North,0,0.0,0.0,62,0.07,,,0.05,WUHU216HW,2013-09-02 04:07:00,
2013-09-01 23:30:00,83.0,69.9,29.84,North,0,0.0,0.0,65,0.00,,,0.07,WUHU216HW,2013-09-02 04:30:00,
2013-09-01 23:31:00,83.0,69.9,29.84,North,0,0.0,0.0,65,0.00,,,0.07,WUHU216HW,2013-09-02 04:31:00,
2013-09-01 23:36:00,83.0,69.9,29.84,North,0,0.0,0.0,65,0.00,,,0.07,WUHU216HW,2013-09-02 04:36:00,